Weather in Torremolinos

Spain     36°36′21″N   4°32′29″W
temp.,
°C
wind,
m/s
gust,
m/s
humid.,
%
clouds,
%
prec.,
mm/h
press.,
hPa
HPBL,
m
22 may, sun
sun2223:00+22wsw226528 0.0 101863
02:00+21wsw116958 0.0 101732
05:00+20n0174100 0.1 101523
08:00+20nw1171100 0.1 101420
11:00+21wsw3369100 0.0 101586
14:00+21sw7771100 0.0 1014232
17:00+22wsw101162100 0.0 1012297
20:00+22wsw8106212 0.0 1011153
23 may, mon
mon2323:00+21wsw67690 0.0 101281
02:00+20wsw56730 0.0 101282
05:00+20w45720 0.0 101160
08:00+20wnw336820 0.0 101137
11:00+21wsw336616 0.0 101197
14:00+21sw787413 0.0 1011290
17:00+21sw710735 0.0 1009337
20:00+23wsw67615 0.0 1007323
24 may, tue
tue2423:00+22wsw446596 0.0 100952
02:00+21wsw666993 0.0 100995
05:00+20w567088 0.0 100997
08:00+20wsw44655 0.0 101071
11:00+19wsw1111670 0.0 1011349
14:00+21sw1213540 0.0 1011451
17:00+21sw121451100 0.0 1010471
20:00+22wsw785489 0.0 1010244
25 may, wed
wed2523:00+21w45605 0.0 101167
02:00+20w576080 0.0 1012155
05:00+19w566122 0.0 101389
08:00+20nne34565 0.0 101585
11:00+19e698539 0.3 1017486
14:00+20e35839 0.9 1019279
17:00+20ese3379100 0.0 1018265
20:00+20ese22837 0.0 1019238
26 may, thu
thu2623:00+19ene44861 0.0 1021202
02:00+19ene45850 0.0 1020261
05:00+18ene44831 0.0 1019284
08:00+18ne45805 0.0 1020330
11:00+19ene56785 0.0 1020293
14:00+20ene56704 0.0 1020257
17:00+20ene56725 0.0 1018305
20:00+20ene56745 0.0 1018261